Meacham, OR

11:41 PM PDT on October 22, 2017 (GMT -0700)
Meacham

Weather History for KMEH - May, 2013

Change the Weather History Date:

Thursday, May 2, 2013

  Actual Average Record
Temperature  
Mean Temperature 46 °F -  
Max Temperature 68 °F 54 °F 75 °F (2016)
Min Temperature 25 °F 29 °F 19 °F (2006)
Degree Days  
Heating Degree Days 20    
Moisture  
Dew Point 27 °F    
Average Humidity 54    
Maximum Humidity 89    
Minimum Humidity 20    
Precipitation  
Precipitation 0.00 in - - ()
Sea Level Pressure  
Sea Level Pressure 30.46 in    
Wind  
Wind Speed 1 mph (North)    
Max Wind Speed 5 mph    
Max Gust Speed -    
Visibility 10 miles    
Events      
Averages and records for this station are not official NWS values.
T = Trace of Precipitation, MM = Missing Value Source: NWS Daily Summary

Daily Weather History Graph

Daily Weather History Graph

Search for Another Location

Airport or City:

Trip Planner

Search our weather history database for the weather conditions in past years. The results will help you decide how hot, cold, wet, or windy it might be!

Date:

Astronomy

May. 02, 2013 Rise Set
Actual Time 5:39 AM PDT 8:02 PM PDT
Civil Twilight 5:06 AM PDT 8:35 PM PDT
Nautical Twilight 4:25 AM PDT 9:16 PM PDT
Astronomical Twilight 3:39 AM PDT 10:03 PM PDT
Moon 1:51 AM PDT (5/2) 12:36 PM PDT (5/2)
Length of Visible Light 15h 28m
Length of Day
14h 22m
Waning Gibbous, 46% of the Moon is Illuminated
May 2
Waning Gibbous
May 9
New
May 17
First Quarter
May 24
Full
May 31
Last Quarter

Hourly Weather History & Observations

Time (PDT) Temp. Dew Point Humidity Pressure Visibility Wind Dir Wind Speed Gust Speed Precip Events Conditions
12:56 AM 28.0 °F 25.0 °F 88% 30.61 in 10.0 mi Calm Calm - N/A   Clear
1:56 AM 28.0 °F 24.1 °F 85% 30.60 in 10.0 mi Calm Calm - N/A   Clear
2:56 AM 27.0 °F 24.1 °F 89% 30.57 in 10.0 mi Calm Calm - N/A   Clear
3:56 AM 26.1 °F 23.0 °F 88% 30.58 in 10.0 mi Calm Calm - N/A   Clear
4:56 AM 26.1 °F 23.0 °F 88% 30.57 in 10.0 mi Calm Calm - N/A   Clear
5:56 AM 25.0 °F 21.9 °F 88% 30.58 in 10.0 mi Calm Calm - N/A   Clear
6:56 AM 28.9 °F 25.0 °F 85% 30.58 in 10.0 mi Calm Calm - N/A   Clear
7:56 AM 42.1 °F 30.0 °F 62% 30.55 in 10.0 mi Calm Calm - N/A   Clear
8:56 AM 52.0 °F 25.0 °F 35% 30.54 in 10.0 mi Variable 3.5 mph - N/A   Clear
9:56 AM 57.0 °F 25.0 °F 29% 30.53 in 10.0 mi Calm Calm - N/A   Clear
10:56 AM 60.1 °F 21.9 °F 23% 30.51 in 10.0 mi Variable 3.5 mph - N/A   Clear
11:56 AM 61.0 °F 19.0 °F 20% 30.49 in 10.0 mi Variable 3.5 mph - N/A   Clear
12:56 PM 64.9 °F 24.1 °F 21% 30.45 in 10.0 mi Variable 3.5 mph - N/A   Clear
1:56 PM 66.9 °F 25.0 °F 21% 30.43 in 10.0 mi Variable 3.5 mph - N/A   Clear
2:56 PM 66.0 °F 26.1 °F 22% 30.40 in 10.0 mi Calm Calm - N/A   Clear
3:56 PM 66.0 °F 30.0 °F 26% 30.38 in 10.0 mi Variable 3.5 mph - N/A   Clear
4:56 PM 64.0 °F 33.1 °F 31% 30.37 in 10.0 mi Variable 4.6 mph - N/A   Clear
5:56 PM 62.1 °F 32.0 °F 32% 30.37 in 10.0 mi North 3.5 mph - N/A   Clear
6:56 PM 59.0 °F 30.9 °F 35% 30.36 in 10.0 mi Calm Calm - N/A   Clear
7:56 PM 53.1 °F 33.1 °F 47% 30.33 in 10.0 mi Calm Calm - N/A   Clear
8:56 PM 48.0 °F 34.0 °F 58% 30.33 in 10.0 mi Calm Calm - N/A   Clear
9:56 PM 45.0 °F 35.1 °F 68% 30.32 in 10.0 mi Calm Calm - N/A   Clear
10:56 PM 41.0 °F 35.1 °F 79% 30.31 in 10.0 mi Calm Calm - N/A   Clear
11:56 PM 39.0 °F 33.1 °F 79% 30.30 in 10.0 mi Calm Calm - N/A   Clear